When you browse on this site, cookies collect data to enhance your experience and personalize the content and advertising you see.
Visit our Privacy Policy to learn more. By continuing to use the site, you agree to this use of cookies and data.
  • In Latvia
  • List of Countries
  • For 7 days
  • Water Temperature
  • Weather Map
  • Weather Widgets
  • user-avatar
    Login

    Hourly Weather Giumri

    Today, 15 December, Sunday

    Time Temperature Precipitation Wind Pressure Humidity
    00:00 0°C° 0 mm 1 mps 632 mmHg 88%
    01:00 0°C° 0 mm 1 mps 632 mmHg 89%
    02:00 0°C° 0 mm 1 mps 632 mmHg 89%
    03:00 0°C° 0 mm 1 mps 632 mmHg 90%
    04:00 -1°C° 0 mm 1 mps 632 mmHg 90%
    05:00 -1°C° 0 mm 1 mps 631 mmHg 90%
    06:00 -1°C° 0 mm 1 mps 631 mmHg 90%
    07:00 0°C° 0 mm 1 mps 632 mmHg 89%
    08:00 0°C° 0 mm 1 mps 632 mmHg 88%
    09:00 +1°C° 0 mm 1 mps 632 mmHg 87%
    10:00 +2°C° 0 mm 1 mps 632 mmHg 85%
    11:00 +3°C° 0 mm 1 mps 632 mmHg 83%
    12:00 +3°C° 0 mm 1 mps 632 mmHg 81%
    13:00 +3°C° 0 mm 1 mps 632 mmHg 80%
    14:00 +4°C° 0 mm 1 mps 632 mmHg 79%
    15:00 +4°C° 0 mm 1 mps 632 mmHg 79%
    16:00 +3°C° 0 mm 1 mps 632 mmHg 80%
    17:00 +2°C° 0 mm 1 mps 632 mmHg 82%
    18:00 +1°C° 0 mm 1 mps 632 mmHg 84%
    19:00 +1°C° 0 mm 1 mps 632 mmHg 84%
    20:00 +1°C° 0 mm 1 mps 633 mmHg 83%
    21:00 0°C° 0 mm 0 mps 633 mmHg 83%
    22:00 +1°C° 0 mm 1 mps 633 mmHg 83%
    23:00 0°C° 0 mm 1 mps 633 mmHg 84%

    Tomorrow, 16 December, Monday

    Time Temperature Precipitation Wind Pressure Humidity
    00:00 0°C° 0 mm 1 mps 633 mmHg 84%
    01:00 0°C° 0 mm 1 mps 633 mmHg 84%
    02:00 0°C° 0 mm 1 mps 633 mmHg 84%
    03:00 0°C° 0 mm 1 mps 633 mmHg 83%
    04:00 0°C° 0 mm 1 mps 633 mmHg 83%
    05:00 -1°C° 0 mm 1 mps 633 mmHg 83%
    06:00 -1°C° 0 mm 1 mps 633 mmHg 83%
    07:00 0°C° 0 mm 1 mps 634 mmHg 81%
    08:00 0°C° 0 mm 1 mps 634 mmHg 80%
    09:00 +1°C° 0 mm 1 mps 635 mmHg 78%
    10:00 +2°C° 0 mm 1 mps 635 mmHg 76%
    11:00 +3°C° 0 mm 1 mps 635 mmHg 74%
    12:00 +4°C° 0 mm 1 mps 635 mmHg 72%
    13:00 +4°C° 0 mm 1 mps 635 mmHg 72%
    14:00 +4°C° 0 mm 1 mps 635 mmHg 72%
    15:00 +4°C° 0 mm 1 mps 635 mmHg 72%
    16:00 +3°C° 0 mm 1 mps 635 mmHg 74%
    17:00 +2°C° 0 mm 1 mps 635 mmHg 77%
    18:00 -1°C° 0 mm 2 mps 635 mmHg 79%
    19:00 -2°C° 0 mm 2 mps 635 mmHg 80%
    20:00 -2°C° 0 mm 2 mps 636 mmHg 80%
    21:00 -2°C° 0 mm 2 mps 636 mmHg 81%
    22:00 -3°C° 0 mm 2 mps 636 mmHg 81%
    23:00 -3°C° 0 mm 2 mps 636 mmHg 80%

    Day after tomorrow, 17 December, Tuesday

    Time Temperature Precipitation Wind Pressure Humidity
    00:00 -3°C° 0 mm 2 mps 637 mmHg 80%
    01:00 -3°C° 0 mm 2 mps 637 mmHg 80%
    02:00 -2°C° 0 mm 1 mps 637 mmHg 80%
    03:00 -2°C° 0 mm 1 mps 637 mmHg 80%
    04:00 -2°C° 0 mm 1 mps 637 mmHg 81%
    05:00 -2°C° 0 mm 1 mps 637 mmHg 81%
    06:00 -2°C° 0 mm 1 mps 637 mmHg 81%
    07:00 -1°C° 0 mm 1 mps 637 mmHg 79%
    08:00 -1°C° 0 mm 1 mps 638 mmHg 76%
    09:00 0°C° 0 mm 1 mps 638 mmHg 74%
    10:00 +1°C° 0 mm 1 mps 638 mmHg 71%
    11:00 +3°C° 0 mm 1 mps 638 mmHg 68%
    12:00 +4°C° 0 mm 1 mps 638 mmHg 65%
    13:00 +3°C° 0 mm 0 mps 638 mmHg 65%
    14:00 +3°C° 0 mm 0 mps 638 mmHg 65%
    15:00 +3°C° 0 mm 0 mps 637 mmHg 65%
    16:00 +2°C° 0 mm 0 mps 637 mmHg 67%
    17:00 0°C° 0 mm 0 mps 637 mmHg 68%
    18:00 -1°C° 0 mm 0 mps 638 mmHg 70%
    19:00 -1°C° 0 mm 0 mps 638 mmHg 69%
    20:00 -1°C° 0 mm 0 mps 638 mmHg 67%
    21:00 -2°C° 0 mm 0 mps 638 mmHg 65%
    22:00 -2°C° 0 mm 0 mps 638 mmHg 65%
    23:00 -2°C° 0 mm 0 mps 638 mmHg 64%

    18 December, Wednesday

    Time Temperature Precipitation Wind Pressure Humidity
    00:00 -2°C° 0 mm 0 mps 638 mmHg 64%
    01:00 -2°C° 0 mm 0 mps 638 mmHg 64%
    02:00 -2°C° 0 mm 0 mps 638 mmHg 64%
    03:00 -3°C° 0 mm 0 mps 638 mmHg 64%
    04:00 -3°C° 0 mm 0 mps 638 mmHg 64%
    05:00 -3°C° 0 mm 0 mps 638 mmHg 64%
    06:00 -3°C° 0 mm 0 mps 638 mmHg 64%
    07:00 -2°C° 0 mm 0 mps 639 mmHg 63%
    08:00 -2°C° 0 mm 0 mps 639 mmHg 61%
    09:00 -1°C° 0 mm 0 mps 639 mmHg 59%
    10:00 0°C° 0 mm 0 mps 639 mmHg 58%
    11:00 +1°C° 0 mm 0 mps 640 mmHg 57%
    12:00 +2°C° 0 mm 0 mps 640 mmHg 57%
    13:00 +2°C° 0 mm 0 mps 639 mmHg 56%
    14:00 +2°C° 0 mm 0 mps 639 mmHg 55%
    15:00 +2°C° 0 mm 0 mps 639 mmHg 54%
    16:00 +2°C° 0 mm 1 mps 639 mmHg 55%
    17:00 +1°C° 0 mm 1 mps 639 mmHg 55%
    18:00 0°C° 0 mm 1 mps 639 mmHg 55%
    19:00 0°C° 0 mm 1 mps 639 mmHg 55%
    20:00 0°C° 0 mm 1 mps 639 mmHg 54%
    21:00 0°C° 0 mm 1 mps 639 mmHg 53%
    22:00 0°C° 0 mm 1 mps 639 mmHg 53%
    23:00 0°C° 0 mm 1 mps 639 mmHg 53%

    19 December, Thursday

    Time Temperature Precipitation Wind Pressure Humidity
    00:00 0°C° 0 mm 1 mps 639 mmHg 53%
    01:00 -1°C° 0 mm 1 mps 639 mmHg 53%
    02:00 -1°C° 0 mm 1 mps 639 mmHg 52%
    03:00 -1°C° 0 mm 1 mps 639 mmHg 52%
    04:00 -1°C° 0 mm 1 mps 639 mmHg 51%
    05:00 -1°C° 0 mm 1 mps 638 mmHg 51%
    06:00 -1°C° 0 mm 1 mps 638 mmHg 50%
    07:00 0°C° 0 mm 1 mps 639 mmHg 49%
    08:00 +1°C° 0 mm 1 mps 639 mmHg 47%
    09:00 +1°C° 0 mm 1 mps 639 mmHg 46%
    10:00 +3°C° 0 mm 1 mps 639 mmHg 46%
    11:00 +4°C° 0 mm 1 mps 639 mmHg 47%
    12:00 +5°C° 0 mm 1 mps 639 mmHg 47%
    13:00 +5°C° 0 mm 1 mps 639 mmHg 46%
    14:00 +5°C° 0 mm 1 mps 639 mmHg 45%
    15:00 +5°C° 0 mm 1 mps 638 mmHg 44%
    16:00 +4°C° 0 mm 1 mps 638 mmHg 44%
    17:00 +3°C° 0 mm 1 mps 638 mmHg 44%
    18:00 +2°C° 0 mm 1 mps 637 mmHg 44%
    19:00 +2°C° 0 mm 1 mps 637 mmHg 44%
    20:00 0°C° 0 mm 0 mps 637 mmHg 44%
    21:00 0°C° 0 mm 0 mps 637 mmHg 44%
    22:00 0°C° 0 mm 0 mps 637 mmHg 44%
    23:00 0°C° 0 mm 0 mps 637 mmHg 44%

    20 December, Friday

    Time Temperature Precipitation Wind Pressure Humidity
    00:00 0°C° 0 mm 0 mps 636 mmHg 44%
    01:00 -1°C° 0 mm 0 mps 636 mmHg 45%
    02:00 -1°C° 0 mm 0 mps 636 mmHg 45%
    03:00 -1°C° 0 mm 0 mps 635 mmHg 46%
    04:00 -1°C° 0 mm 0 mps 635 mmHg 46%
    05:00 -1°C° 0 mm 0 mps 635 mmHg 47%
    06:00 -1°C° 0 mm 0 mps 635 mmHg 47%
    07:00 -1°C° 0 mm 0 mps 635 mmHg 46%
    08:00 +1°C° 0 mm 1 mps 635 mmHg 46%
    09:00 +1°C° 0 mm 1 mps 636 mmHg 45%
    10:00 +3°C° 0 mm 1 mps 636 mmHg 46%
    11:00 +4°C° 0 mm 1 mps 636 mmHg 47%
    12:00 +5°C° 0 mm 1 mps 635 mmHg 48%
    13:00 +5°C° 0 mm 1 mps 635 mmHg 47%
    14:00 +4°C° 0 mm 1 mps 635 mmHg 46%
    15:00 +4°C° 0 mm 1 mps 634 mmHg 45%
    16:00 +3°C° 0 mm 1 mps 634 mmHg 46%
    17:00 +2°C° 0 mm 1 mps 634 mmHg 46%
    18:00 +1°C° 0 mm 1 mps 633 mmHg 47%
    19:00 0°C° 0 mm 1 mps 633 mmHg 47%
    20:00 0°C° 0 mm 1 mps 633 mmHg 48%
    21:00 0°C° 0 mm 1 mps 633 mmHg 48%
    22:00 0°C° 0 mm 1 mps 633 mmHg 48%
    23:00 -1°C° 0 mm 1 mps 633 mmHg 49%
    Show more